This is the latest recevied weather packets stored in our database for station/object N0MPM-4. If no packets are shown the sender has not sent any weather packets the latest 10 day(s).
| Time | Temp. | Humidity | Pressure | Rain* | Wind** | Luminosity | Snow |
|---|---|---|---|---|---|---|---|
| 1778011181 | 12.78° C | 45% | 1011.2 hPa | 0 mm | - | - | - |
| 1778010881 | 12.78° C | 47% | 1011.2 hPa | 0 mm | - | - | - |
| 1778010581 | 12.78° C | 46% | 1011.2 hPa | 0 mm | - | - | - |
| 1778010281 | 12.78° C | 48% | 1011.3 hPa | 0 mm | - | - | - |
| 1778009981 | 12.78° C | 45% | 1011.2 hPa | 0 mm | - | - | - |
| 1778009681 | 12.78° C | 46% | 1011.4 hPa | 0 mm | - | - | - |
| 1778009381 | 12.78° C | 45% | 1011.4 hPa | 0 mm | - | - | - |
| 1778009081 | 12.78° C | 47% | 1011.5 hPa | 0 mm | - | - | - |
| 1778008781 | 12.78° C | 44% | 1011.4 hPa | 0 mm | - | - | - |
| 1778008481 | 12.78° C | 44% | 1011.5 hPa | 0 mm | - | - | - |
| 1778008181 | 12.78° C | 48% | 1011.5 hPa | 0 mm | - | - | - |
| 1778007881 | 12.22° C | 46% | 1011.6 hPa | 0 mm | - | - | - |
| 1778007581 | 12.22° C | 46% | 1011.6 hPa | 0 mm | - | - | - |
| 1778007281 | 12.22° C | 46% | 1011.7 hPa | 0 mm | - | - | - |
| 1778006981 | 12.22° C | 48% | 1011.7 hPa | 0 mm | - | - | - |
| 1778006681 | 12.22° C | 47% | 1011.7 hPa | 0 mm | - | - | - |
| 1778006381 | 12.22° C | 48% | 1011.7 hPa | 0 mm | - | - | - |
| 1778006081 | 12.22° C | 49% | 1011.8 hPa | 0 mm | - | - | - |
| 1778005781 | 11.67° C | 48% | 1011.9 hPa | 0 mm | - | - | - |
| 1778005481 | 12.22° C | 49% | 1011.7 hPa | 0 mm | - | - | - |
| 1778005181 | 12.22° C | 48% | 1011.7 hPa | 0 mm | - | - | - |
| 1778004881 | 12.22° C | 49% | 1011.8 hPa | 0 mm | - | - | - |
| 1778004581 | 12.22° C | 48% | 1011.9 hPa | 0 mm | - | - | - |
| 1778004281 | 12.22° C | 46% | 1011.9 hPa | 0 mm | - | - | - |
| 1778003981 | 12.22° C | 44% | 1011.8 hPa | 0 mm | - | - | - |
* Rain latest hour (hover to see other rain measurements)
** Current wind speed in m/s (hover to see current wind gust speed)